DW8398 Weather Reports


Display with metric or nautical units.
time (UTC)temp
F
wind
direction
speed
MPH
gust
MPH
rain 1hr
in
rain 24hr
in
rain mn
in
humidity
%
barometer
mb
20260506132040 64 150 3.0 9.0 0.00 0.00 0.00 80 1007.5
20260506131552 64 175 4.0 8.0 0.00 0.00 0.00 80 1007.4
20260506131040 64 175 4.0 9.0 0.00 0.00 0.00 80 1007.2
20260506130540 64 170 3.0 9.0 0.00 0.00 0.00 81 1007.3
20260506130046 64 169 4.0 8.0 0.00 0.00 0.00 81 1007.5
20260506125540 64 150 2.0 8.0 0.00 0.00 0.00 81 1007.6
20260506125040 63 159 2.0 7.0 0.00 0.00 0.00 81 1007.5
20260506124540 63 129 3.0 7.0 0.00 0.00 0.00 81 1007.6
20260506124040 63 138 1.0 6.0 0.00 0.00 0.00 81 1007.7
20260506123537 63 165 1.0 7.0 0.00 0.00 0.00 82 1007.7
20260506123051 63 153 2.0 7.0 0.00 0.00 0.00 81 1007.7
20260506122536 63 225 2.0 8.0 0.00 0.00 0.00 81 1007.8
20260506122040 63 190 3.0 8.0 0.00 0.00 0.00 81 1007.8
20260506121558 63 180 2.0 10.0 0.00 0.00 0.00 81 1007.8
20260506121043 63 224 3.0 10.0 0.00 0.00 0.00 81 1007.9
20260506120539 63 178 1.0 9.0 0.00 0.00 0.00 81 1008.0
20260506120053 63 159 3.0 9.0 0.00 0.00 0.00 81 1008.1
20260506115541 63 180 5.0 11.0 0.00 0.00 0.00 81 1007.9
20260506115039 63 168 4.0 11.0 0.00 0.00 0.00 82 1007.8
20260506114553 63 200 3.0 9.0 0.00 0.00 0.00 82 1007.7
20260506114037 62 265 3.0 8.0 0.00 0.00 0.00 82 1007.8
20260506113537 62 194 2.0 10.0 0.00 0.00 0.00 82 1007.8
20260506113049 62 155 4.0 10.0 0.00 0.00 0.00 82 1007.7
20260506112537 62 146 3.0 9.0 0.00 0.00 0.00 82 1007.6
20260506112039 62 171 4.0 10.0 0.00 0.00 0.00 82 1007.5
20260506111552 62 190 3.0 10.0 0.00 0.00 0.00 82 1007.8
20260506111040 62 153 4.0 9.0 0.00 0.00 0.00 82 1007.7
20260506110539 62 145 4.0 9.0 0.00 0.00 0.00 83 1007.7
20260506110050 61 184 2.0 5.0 0.00 0.00 0.00 83 1007.8
20260506105541 61 159 2.0 6.0 0.00 0.00 0.00 83 1007.8
20260506105042 61 150 3.0 6.0 0.00 0.00 0.00 83 1007.7
20260506104556 61 146 1.0 6.0 0.00 0.00 0.00 83 1007.8
20260506104040 61 153 2.0 6.0 0.00 0.00 0.00 83 1007.7
20260506103540 61 109 1.0 5.0 0.00 0.00 0.00 83 1007.5
20260506103054 61 160 1.0 5.0 0.00 0.00 0.00 83 1007.6
20260506102537 61 177 1.0 5.0 0.00 0.00 0.00 83 1007.6
20260506102040 61 134 1.0 4.0 0.00 0.00 0.00 83 1007.7
20260506101549 60 122 0.0 3.0 0.00 0.00 0.00 83 1007.7
20260506101040 60 159 1.0 4.0 0.00 0.00 0.00 83 1007.5
20260506100540 60 142 1.0 6.0 0.00 0.00 0.00 84 1007.5
20260506100105 60 151 1.0 6.0 0.00 0.00 0.00 84 1007.6
20260506095541 59 136 2.0 5.0 0.00 0.00 0.00 85 1007.7
20260506095040 58 0 0.0 4.0 0.00 0.00 0.00 85 1007.6
20260506094600 58 187 0.0 5.0 0.00 0.00 0.00 85 1007.7
20260506094039 58 151 1.0 5.0 0.00 0.00 0.00 85 1007.6
20260506093540 57 178 0.0 2.0 0.00 0.00 0.00 85 1007.5
20260506093056 57 0 0.0 2.0 0.00 0.00 0.00 86 1007.4
20260506092540 57 0 0.0 2.0 0.00 0.00 0.00 86 1007.4
20260506092042 57 0 0.0 2.0 0.00 0.00 0.00 84 1007.5
20260506091555 57 0 0.0 1.0 0.00 0.00 0.00 84 1007.4
20260506091040 57 0 0.0 1.0 0.00 0.00 0.00 83 1007.4
20260506090541 58 0 0.0 0.0 0.00 0.00 0.00 82 1007.4
20260506090048 58 0 0.0 3.0 0.00 0.00 0.00 82 1007.5
20260506085540 58 0 0.0 3.0 0.00 0.00 0.00 83 1007.4
20260506085040 58 0 0.0 3.0 0.00 0.00 0.00 83 1007.6
20260506084555 58 0 0.0 1.0 0.00 0.00 0.00 83 1007.6
20260506084040 58 0 0.0 1.0 0.00 0.00 0.00 82 1007.6
20260506083540 58 0 0.0 1.0 0.00 0.00 0.00 82 1007.7
20260506083050 58 0 0.0 1.0 0.00 0.00 0.00 81 1007.6
20260506082537 59 0 0.0 1.0 0.00 0.00 0.00 81 1007.7
20260506082040 59 0 0.0 1.0 0.00 0.00 0.00 81 1007.6
20260506081549 59 0 0.0 1.0 0.00 0.00 0.00 81 1007.7
20260506081040 59 0 0.0 1.0 0.00 0.00 0.00 82 1007.7
20260506080541 59 0 0.0 2.0 0.00 0.00 0.00 83 1007.6
20260506073055 57 0 0.0 1.0 0.00 0.00 0.00 83 1007.6
20260506072540 57 0 0.0 0.0 0.00 0.00 0.00 82 1007.6
20260506072037 58 0 0.0 0.0 0.00 0.00 0.00 82 1007.7
20260506071556 58 0 0.0 0.0 0.00 0.00 0.00 81 1007.7
20260506071041 58 0 0.0 2.0 0.00 0.00 0.00 81 1007.8
20260506070541 58 0 0.0 2.0 0.00 0.00 0.00 80 1007.7
20260506062040 63 219 0.0 1.0 0.00 0.00 0.00 70 1008.0
20260506061551 64 0 0.0 1.0 0.00 0.00 0.00 69 1007.9
20260506061040 64 0 0.0 1.0 0.00 0.00 0.00 69 1008.0
20260506060542 64 0 0.0 2.0 0.00 0.00 0.00 68 1008.1
20260506051036 66 173 1.0 6.0 0.00 0.00 0.00 65 1008.2
20260506050538 66 160 2.0 9.0 0.00 0.00 0.00 64 1008.2
20260506045038 66 144 3.0 8.0 0.00 0.00 0.00 63 1008.3
20260506044548 67 0 2.0 8.0 0.00 0.00 0.00 63 1008.3
20260506044038 67 181 4.0 8.0 0.00 0.00 0.00 63 1008.3
20260506043537 67 165 4.0 8.0 0.00 0.00 0.00 63 1008.2
20260506043044 66 190 2.0 6.0 0.00 0.00 0.00 63 1008.2
20260506042536 66 179 3.0 6.0 0.00 0.00 0.00 63 1008.1
20260506042038 66 205 2.0 6.0 0.00 0.00 0.00 63 1008.1
20260506041542 67 190 2.0 7.0 0.00 0.00 0.00 63 1008.2
20260506041036 67 163 1.0 7.0 0.00 0.00 0.00 63 1008.2
20260506040538 67 187 1.0 6.0 0.00 0.00 0.00 62 1008.2
20260506040040 67 204 2.0 7.0 0.00 0.00 0.00 61 1008.2
20260506035538 67 207 2.0 9.0 0.00 0.00 0.00 60 1008.1
20260506035040 68 200 2.0 10.0 0.00 0.00 0.00 60 1008.0
20260506034547 68 158 4.0 10.0 0.00 0.00 0.00 58 1008.0
20260506034042 68 184 4.0 10.0 0.00 0.00 0.00 57 1008.1
20260506033540 69 152 4.0 10.0 0.00 0.00 0.00 56 1008.1
20260506033045 70 160 4.0 10.0 0.00 0.00 0.00 54 1008.1
20260506032537 70 164 2.0 9.0 0.00 0.00 0.00 53 1008.0
20260506032043 71 213 4.0 9.0 0.00 0.00 0.00 52 1008.0
20260506031547 71 163 4.0 7.0 0.00 0.00 0.00 50 1008.0
20260506031038 71 175 3.0 7.0 0.00 0.00 0.00 51 1008.0
20260506030539 72 205 4.0 7.0 0.00 0.00 0.00 49 1008.0
20260506030059 72 145 3.0 9.0 0.00 0.00 0.00 48 1008.0
20260506025540 72 169 3.0 9.0 0.00 0.00 0.00 47 1008.0
20260506025040 72 212 4.0 9.0 0.00 0.00 0.00 47 1008.0
20260506024556 72 199 2.0 9.0 0.00 0.00 0.00 46 1007.9
20260506024042 72 176 3.0 9.0 0.00 0.00 0.00 46 1007.9
20260506023541 72 167 2.0 6.0 0.00 0.00 0.00 46 1007.9
20260506023050 73 167 1.0 8.0 0.00 0.00 0.00 46 1007.8
20260506022540 73 207 4.0 8.0 0.00 0.00 0.00 45 1007.8
20260506022040 73 191 3.0 6.0 0.00 0.00 0.00 45 1007.7
20260506021559 73 184 2.0 6.0 0.00 0.00 0.00 45 1007.7
20260506021041 73 183 2.0 8.0 0.00 0.00 0.00 45 1007.7
20260506020540 73 191 2.0 8.0 0.00 0.00 0.00 44 1007.7
20260506020048 73 169 1.0 7.0 0.00 0.00 0.00 45 1007.7
20260506015540 73 189 2.0 5.0 0.00 0.00 0.00 45 1007.7
20260506015042 73 257 1.0 7.0 0.00 0.00 0.00 45 1007.7
20260506014600 73 198 1.0 8.0 0.00 0.00 0.00 44 1007.6
20260506014041 73 194 1.0 8.0 0.00 0.00 0.00 44 1007.6
20260506013540 73 272 3.0 8.0 0.00 0.00 0.00 44 1007.5
20260506013056 73 161 2.0 6.0 0.00 0.00 0.00 44 1007.5
20260506012540 73 185 1.0 6.0 0.00 0.00 0.00 44 1007.3
20260506012040 73 188 2.0 6.0 0.00 0.00 0.00 43 1007.3
20260506011552 73 186 2.0 5.0 0.00 0.00 0.00 44 1007.3
20260506011040 73 0 0.0 5.0 0.00 0.00 0.00 44 1007.3
20260506010541 74 324 1.0 6.0 0.00 0.00 0.00 44 1007.4
20260506010056 74 0 0.0 7.0 0.00 0.00 0.00 43 1007.3
20260506005541 74 198 3.0 9.0 0.00 0.00 0.00 42 1007.2
20260506005040 74 212 2.0 9.0 0.00 0.00 0.00 43 1007.1
20260506004551 74 174 2.0 8.0 0.00 0.00 0.00 43 1007.1
20260506004040 75 168 2.0 7.0 0.00 0.00 0.00 42 1007.0
20260506003540 75 166 3.0 8.0 0.00 0.00 0.00 42 1007.0
20260506003049 75 213 2.0 8.0 0.00 0.00 0.00 42 1006.9
20260506002540 75 204 2.0 11.0 0.00 0.00 0.00 42 1006.8
20260506002040 75 264 2.0 11.0 0.00 0.00 0.00 41 1006.7
20260506001546 75 142 2.0 11.0 0.00 0.00 0.00 42 1006.7
20260506001040 76 232 2.0 13.0 0.00 0.00 0.00 41 1006.5
20260506000537 76 255 4.0 13.0 0.00 0.00 0.00 41 1006.6
20260506000047 76 257 3.0 10.0 0.00 0.00 0.00 40 1006.5
20260505235537 76 252 2.0 10.0 0.00 0.00 0.00 41 1006.4
20260505235040 76 272 1.0 12.0 0.00 0.00 0.00 41 1006.4
20260505234549 76 256 3.0 12.0 0.00 0.00 0.00 40 1006.2
20260505234041 76 231 4.0 17.0 0.00 0.00 0.00 40 1006.2
20260505233540 76 200 4.0 17.0 0.00 0.00 0.00 39 1006.2
20260505233045 76 311 2.0 12.0 0.00 0.00 0.00 41 1006.0
20260505232541 76 196 2.0 8.0 0.00 0.00 0.00 41 1005.9
20260505232041 76 148 2.0 8.0 0.00 0.00 0.00 41 1005.9
20260505231548 76 287 3.0 8.0 0.00 0.00 0.00 40 1005.9
20260505231040 76 244 2.0 9.0 0.00 0.00 0.00 40 1005.8
20260505230540 77 165 3.0 9.0 0.00 0.00 0.00 39 1005.8
20260505230051 77 302 0.0 7.0 0.00 0.00 0.00 41 1005.7
20260505225541 77 197 3.0 7.0 0.00 0.00 0.00 40 1005.7
20260505225041 76 242 1.0 10.0 0.00 0.00 0.00 41 1005.5
20260505224547 77 239 1.0 10.0 0.00 0.00 0.00 41 1005.4
20260505224041 77 251 4.0 10.0 0.00 0.00 0.00 40 1005.3
20260505223541 77 273 2.0 6.0 0.00 0.00 0.00 41 1005.4
20260505223050 77 198 1.0 8.0 0.00 0.00 0.00 40 1005.3
20260505222541 77 197 3.0 15.0 0.00 0.00 0.00 39 1005.2
20260505222041 77 264 2.0 15.0 0.00 0.00 0.00 39 1005.3
20260505221558 78 134 2.0 13.0 0.00 0.00 0.00 40 1005.2
20260505221041 78 228 5.0 13.0 0.00 0.00 0.00 38 1005.1
20260505220540 78 169 4.0 9.0 0.00 0.00 0.00 40 1005.1
20260505220049 78 227 4.0 11.0 0.00 0.00 0.00 39 1005.0
20260505215540 79 151 3.0 11.0 0.00 0.00 0.00 39 1005.0
20260505215040 79 279 4.0 18.0 0.00 0.00 0.00 38 1005.1
20260505214548 80 216 8.0 18.0 0.00 0.00 0.00 37 1005.0
20260505214041 80 248 1.0 17.0 0.00 0.00 0.00 41 1004.8
20260505213542 79 215 3.0 17.0 0.00 0.00 0.00 39 1004.7
20260505213051 79 207 4.0 16.0 0.00 0.00 0.00 39 1004.7
20260505212541 79 254 4.0 11.0 0.00 0.00 0.00 39 1004.7
20260505212041 80 243 5.0 14.0 0.00 0.00 0.00 37 1004.9
20260505211549 80 189 4.0 14.0 0.00 0.00 0.00 35 1004.8
20260505211039 80 260 4.0 13.0 0.00 0.00 0.00 36 1004.6
20260505210541 81 248 4.0 12.0 0.00 0.00 0.00 39 1004.6
20260505210048 80 270 5.0 12.0 0.00 0.00 0.00 39 1004.7
20260505205543 80 207 2.0 16.0 0.00 0.00 0.00 39 1004.6
20260505205040 81 269 3.0 18.0 0.00 0.00 0.00 39 1004.6
20260505204549 81 217 8.0 18.0 0.00 0.00 0.00 39 1004.7
20260505204041 82 184 4.0 13.0 0.00 0.00 0.00 39 1004.6
20260505203540 82 278 4.0 13.0 0.00 0.00 0.00 42 1004.7
20260505203051 81 236 4.0 13.0 0.00 0.00 0.00 39 1004.7
20260505202539 81 234 4.0 12.0 0.00 0.00 0.00 41 1004.9
20260505202041 81 284 3.0 14.0 0.00 0.00 0.00 40 1004.8
20260505201553 81 260 4.0 14.0 0.00 0.00 0.00 42 1005.0
20260505201040 81 165 6.0 18.0 0.00 0.00 0.00 39 1004.9
20260505200540 81 221 6.0 18.0 0.00 0.00 0.00 39 1005.1
20260505200054 81 280 8.0 16.0 0.00 0.00 0.00 38 1005.2
20260505195540 81 181 7.0 23.0 0.00 0.00 0.00 38 1005.1
20260505195041 81 257 5.0 23.0 0.00 0.00 0.00 37 1005.1
20260505194556 82 163 6.0 17.0 0.00 0.00 0.00 42 1005.3
20260505194043 82 252 6.0 20.0 0.00 0.00 0.00 37 1005.2
20260505193538 82 265 9.0 20.0 0.00 0.00 0.00 36 1005.4
20260505193114 82 286 5.0 18.0 0.00 0.00 0.00 40 1005.4
20260505192538 82 167 5.0 19.0 0.00 0.00 0.00 36 1005.5
20260505192038 82 321 6.0 26.0 0.00 0.00 0.00 37 1005.6
20260505191558 82 262 8.0 26.0 0.00 0.00 0.00 38 1005.6
20260505191039 81 221 9.0 26.0 0.00 0.00 0.00 36 1005.7
20260505190538 81 265 11.0 22.0 0.00 0.00 0.00 36 1005.6
20260505190045 82 250 7.0 22.0 0.00 0.00 0.00 39 1005.6
20260505185538 82 234 7.0 25.0 0.00 0.00 0.00 37 1005.6
20260505185036 81 242 6.0 26.0 0.00 0.00 0.00 39 1005.5
20260505184556 82 238 7.0 26.0 0.00 0.00 0.00 36 1006.0
20260505184041 81 232 5.0 23.0 0.00 0.00 0.00 38 1005.9
20260505183539 81 246 7.0 23.0 0.00 0.00 0.00 39 1006.1
20260505183043 81 284 10.0 21.0 0.00 0.00 0.00 39 1006.2
20260505182538 81 254 7.0 24.0 0.00 0.00 0.00 39 1006.4
20260505182036 80 229 6.0 25.0 0.00 0.00 0.00 40 1006.5
20260505181549 81 285 11.0 26.0 0.00 0.00 0.00 42 1006.4
20260505181038 81 275 6.0 26.0 0.00 0.00 0.00 40 1006.5
20260505180538 80 228 7.0 25.0 0.00 0.00 0.00 44 1006.2
20260505180052 81 265 7.0 25.0 0.00 0.00 0.00 46 1006.5
20260505175536 80 263 8.0 25.0 0.00 0.00 0.00 44 1006.4
20260505175039 80 175 6.0 22.0 0.00 0.00 0.00 45 1006.4
20260505174545 80 283 7.0 20.0 0.00 0.00 0.00 46 1006.6
20260505174040 79 245 5.0 23.0 0.00 0.00 0.00 46 1006.4
20260505173535 80 209 6.0 23.0 0.00 0.00 0.00 45 1006.6
20260505173046 80 300 8.0 23.0 0.00 0.00 0.00 44 1006.7
20260505172538 80 246 6.0 14.0 0.00 0.00 0.00 45 1006.5
20260505172038 79 261 4.0 17.0 0.00 0.00 0.00 47 1006.7
20260505171548 79 212 9.0 18.0 0.00 0.00 0.00 46 1006.6
20260505171038 80 236 5.0 18.0 0.00 0.00 0.00 46 1006.5
20260505170537 80 158 4.0 13.0 0.00 0.00 0.00 49 1006.7
20260505170043 80 283 4.0 21.0 0.00 0.00 0.00 47 1006.7
20260505165535 79 250 4.0 21.0 0.00 0.00 0.00 46 1006.8
20260505165035 79 237 5.0 18.0 0.00 0.00 0.00 48 1006.8
20260505164549 79 252 4.0 18.0 0.00 0.00 0.00 46 1007.0
20260505164035 79 185 4.0 17.0 0.00 0.00 0.00 50 1007.2
20260505163539 78 207 6.0 17.0 0.00 0.00 0.00 52 1007.2
20260505163045 78 164 5.0 17.0 0.00 0.00 0.00 49 1007.4
20260505162538 77 130 7.0 16.0 0.00 0.00 0.00 49 1007.4
20260505162037 78 163 4.0 15.0 0.00 0.00 0.00 49 1007.5
20260505161546 78 205 6.0 16.0 0.00 0.00 0.00 52 1007.5
20260505161038 77 208 7.0 16.0 0.00 0.00 0.00 53 1007.8
20260505160536 77 248 6.0 16.0 0.00 0.00 0.00 51 1007.7
20260505153101 76 170 5.0 15.0 0.00 0.00 0.00 52 1008.0
20260505152538 75 180 7.0 17.0 0.00 0.00 0.00 57 1008.1
20260505152037 75 169 5.0 17.0 0.00 0.00 0.00 55 1008.2
20260505151547 75 182 6.0 17.0 0.00 0.00 0.00 54 1008.3
20260505151041 75 191 6.0 13.0 0.00 0.00 0.00 54 1008.4
20260505150539 75 213 3.0 9.0 0.00 0.00 0.00 56 1008.4
20260505140539 71 210 2.0 11.0 0.00 0.00 0.00 62 1009.0